Previsão horária em Cele

Hoje, 25 Julho, Domingo

Tempo Temperatura Precipitação Vento Pressão Humidade
00:00 +21°C° 0 mm 1 m/s 733 mmHg 93%
01:00 +21°C° 0 mm 1 m/s 733 mmHg 95%
02:00 +21°C° 0 mm 1 m/s 733 mmHg 95%
03:00 +20°C° 0 mm 1 m/s 733 mmHg 95%
04:00 +20°C° 0 mm 1 m/s 733 mmHg 95%
05:00 +21°C° 0 mm 1 m/s 733 mmHg 90%
06:00 +23°C° 0 mm 1 m/s 733 mmHg 84%
07:00 +22°C° 0 mm 0 m/s 733 mmHg 78%
08:00 +26°C° 0 mm 1 m/s 733 mmHg 68%
09:00 +28°C° 0 mm 1 m/s 733 mmHg 58%
10:00 +31°C° 0 mm 2 m/s 733 mmHg 48%
11:00 +33°C° 0 mm 3 m/s 733 mmHg 43%
12:00 +34°C° 0 mm 4 m/s 733 mmHg 38%
13:00 +35°C° 0 mm 5 m/s 732 mmHg 32%
14:00 +35°C° 0 mm 5 m/s 732 mmHg 34%
15:00 +34°C° 0 mm 5 m/s 732 mmHg 35%
16:00 +34°C° 0 mm 4 m/s 732 mmHg 36%
17:00 +30°C° 0 mm 3 m/s 732 mmHg 47%
18:00 +28°C° 0 mm 3 m/s 732 mmHg 58%
19:00 +26°C° 0 mm 2 m/s 732 mmHg 69%
20:00 +24°C° 0 mm 1 m/s 732 mmHg 71%
21:00 +23°C° 0 mm 1 m/s 732 mmHg 73%
22:00 +22°C° 0 mm 1 m/s 732 mmHg 75%
23:00 +22°C° 0 mm 1 m/s 732 mmHg 77%

Amanhã, 26 Julho, Segunda-feira

Tempo Temperatura Precipitação Vento Pressão Humidade
00:00 +21°C° 0 mm 1 m/s 732 mmHg 78%
01:00 +21°C° 0 mm 1 m/s 732 mmHg 80%
02:00 +20°C° 0 mm 1 m/s 733 mmHg 81%
03:00 +20°C° 0 mm 1 m/s 733 mmHg 82%
04:00 +20°C° 0 mm 1 m/s 733 mmHg 84%
05:00 +21°C° 0 mm 1 m/s 733 mmHg 80%
06:00 +20°C° 0 mm 0 m/s 733 mmHg 76%
07:00 +22°C° 0 mm 0 m/s 734 mmHg 72%
08:00 +24°C° 0 mm 0 m/s 734 mmHg 64%
09:00 +28°C° 0 mm 1 m/s 734 mmHg 57%
10:00 +30°C° 0 mm 1 m/s 734 mmHg 49%
11:00 +31°C° 0 mm 2 m/s 734 mmHg 45%
12:00 +33°C° 0 mm 3 m/s 734 mmHg 42%
13:00 +34°C° 0 mm 4 m/s 734 mmHg 38%
14:00 +33°C° 0 mm 4 m/s 734 mmHg 42%
15:00 +32°C° 0 mm 4 m/s 734 mmHg 46%
16:00 +30°C° 0 mm 4 m/s 734 mmHg 50%
17:00 +29°C° 0 mm 4 m/s 734 mmHg 54%
18:00 +28°C° 0 mm 4 m/s 734 mmHg 59%
19:00 +27°C° 0 mm 4 m/s 734 mmHg 63%
20:00 +25°C° 0 mm 3 m/s 735 mmHg 70%
21:00 +22°C° 0 mm 3 m/s 735 mmHg 77%
22:00 +20°C° 0 mm 2 m/s 735 mmHg 84%
23:00 +20°C° 0 mm 2 m/s 735 mmHg 85%

Depois de amanhã, 27 Julho, Terça-feira

Tempo Temperatura Precipitação Vento Pressão Humidade
00:00 +19°C° 0 mm 2 m/s 735 mmHg 86%
01:00 +20°C° 0 mm 1 m/s 735 mmHg 87%
02:00 +20°C° 0 mm 1 m/s 735 mmHg 88%
03:00 +19°C° 0 mm 1 m/s 735 mmHg 88%
04:00 +19°C° 0 mm 1 m/s 735 mmHg 89%
05:00 +20°C° 0 mm 1 m/s 736 mmHg 84%
06:00 +22°C° 0 mm 1 m/s 736 mmHg 79%
07:00 +23°C° 0 mm 1 m/s 737 mmHg 74%
08:00 +25°C° 0 mm 1 m/s 737 mmHg 67%
09:00 +28°C° 0 mm 2 m/s 737 mmHg 59%
10:00 +30°C° 0 mm 2 m/s 737 mmHg 52%
11:00 +31°C° 0 mm 3 m/s 737 mmHg 47%
12:00 +33°C° 0 mm 3 m/s 736 mmHg 42%
13:00 +34°C° 0 mm 4 m/s 736 mmHg 37%
14:00 +34°C° 0 mm 4 m/s 736 mmHg 37%
15:00 +34°C° 0 mm 4 m/s 736 mmHg 38%
16:00 +34°C° 0 mm 4 m/s 736 mmHg 39%
17:00 +30°C° 0 mm 3 m/s 736 mmHg 48%
18:00 +28°C° 0 mm 2 m/s 735 mmHg 58%
19:00 +26°C° 0 mm 2 m/s 735 mmHg 68%
20:00 +25°C° 0 mm 1 m/s 736 mmHg 70%
21:00 +24°C° 0 mm 1 m/s 736 mmHg 73%
22:00 +23°C° 0 mm 1 m/s 736 mmHg 76%
23:00 +22°C° 0 mm 1 m/s 736 mmHg 79%

28 Julho, Quarta-feira

Tempo Temperatura Precipitação Vento Pressão Humidade
00:00 +21°C° 0 mm 1 m/s 736 mmHg 81%
01:00 +21°C° 0 mm 1 m/s 736 mmHg 84%
02:00 +21°C° 0 mm 1 m/s 736 mmHg 85%
03:00 +20°C° 0 mm 1 m/s 735 mmHg 86%
04:00 +20°C° 0 mm 1 m/s 735 mmHg 87%
05:00 +21°C° 0 mm 1 m/s 735 mmHg 81%
06:00 +23°C° 0 mm 1 m/s 735 mmHg 75%
07:00 +24°C° 0 mm 1 m/s 735 mmHg 69%
08:00 +27°C° 0 mm 1 m/s 735 mmHg 60%
09:00 +29°C° 0 mm 2 m/s 735 mmHg 51%
10:00 +31°C° 0 mm 2 m/s 735 mmHg 41%
11:00 +34°C° 0 mm 3 m/s 735 mmHg 37%
12:00 +35°C° 0 mm 4 m/s 735 mmHg 33%
13:00 +36°C° 0 mm 5 m/s 734 mmHg 29%
14:00 +35°C° 0 mm 5 m/s 734 mmHg 31%
15:00 +35°C° 0 mm 5 m/s 734 mmHg 33%
16:00 +35°C° 0 mm 4 m/s 734 mmHg 35%
17:00 +31°C° 0 mm 3 m/s 734 mmHg 44%
18:00 +28°C° 0 mm 2 m/s 734 mmHg 54%
19:00 +26°C° 0 mm 1 m/s 734 mmHg 64%
20:00 +25°C° 0 mm 1 m/s 734 mmHg 66%
21:00 +24°C° 0 mm 1 m/s 735 mmHg 67%
22:00 +23°C° 0 mm 1 m/s 736 mmHg 69%
23:00 +22°C° 0 mm 1 m/s 736 mmHg 72%

29 Julho, Quinta-feira

Tempo Temperatura Precipitação Vento Pressão Humidade
00:00 +21°C° 0 mm 1 m/s 736 mmHg 76%
01:00 +21°C° 0 mm 1 m/s 736 mmHg 79%
02:00 +20°C° 0 mm 1 m/s 737 mmHg 82%
03:00 +20°C° 0 mm 1 m/s 737 mmHg 85%
04:00 +19°C° 0 mm 1 m/s 737 mmHg 88%
05:00 +18°C° 0 mm 0 m/s 737 mmHg 83%
06:00 +20°C° 0 mm 0 m/s 737 mmHg 78%
07:00 +21°C° 0 mm 0 m/s 738 mmHg 73%
08:00 +25°C° 0 mm 1 m/s 738 mmHg 66%
09:00 +27°C° 0 mm 1 m/s 738 mmHg 58%
10:00 +28°C° 0 mm 1 m/s 738 mmHg 50%
11:00 +30°C° 0 mm 1 m/s 737 mmHg 47%
12:00 +31°C° 0 mm 1 m/s 737 mmHg 44%
13:00 +32°C° 0 mm 1 m/s 736 mmHg 40%
14:00 +33°C° 0 mm 1 m/s 736 mmHg 40%
15:00 +33°C° 0 mm 1 m/s 736 mmHg 40%
16:00 +33°C° 0 mm 1 m/s 735 mmHg 39%
17:00 +31°C° 0 mm 1 m/s 735 mmHg 49%
18:00 +27°C° 0 mm 0 m/s 734 mmHg 58%
19:00 +25°C° 0 mm 0 m/s 734 mmHg 67%
20:00 +24°C° 0 mm 0 m/s 734 mmHg 69%
21:00 +23°C° 0 mm 0 m/s 734 mmHg 70%
22:00 +22°C° 0 mm 0 m/s 734 mmHg 72%
23:00 +23°C° 0 mm 1 m/s 734 mmHg 74%

30 Julho, Sexta-feira

Tempo Temperatura Precipitação Vento Pressão Humidade
00:00 +23°C° 0 mm 1 m/s 734 mmHg 76%
01:00 +22°C° 0 mm 1 m/s 734 mmHg 78%
02:00 +22°C° 0 mm 1 m/s 733 mmHg 79%
03:00 +22°C° 0 mm 1 m/s 733 mmHg 81%
04:00 +21°C° 0 mm 1 m/s 733 mmHg 82%
05:00 +23°C° 0 mm 1 m/s 733 mmHg 77%
06:00 +24°C° 0 mm 1 m/s 733 mmHg 72%
07:00 +23°C° 0 mm 0 m/s 733 mmHg 68%
08:00 +26°C° 0 mm 0 m/s 733 mmHg 59%
09:00 +28°C° 0 mm 0 m/s 733 mmHg 50%
10:00 +31°C° 0 mm 0 m/s 733 mmHg 41%
11:00 +34°C° 0 mm 1 m/s 733 mmHg 37%
12:00 +35°C° 0 mm 1 m/s 732 mmHg 33%
13:00 +37°C° 0 mm 2 m/s 732 mmHg 29%
14:00 +37°C° 0 mm 2 m/s 732 mmHg 28%
15:00 +38°C° 0 mm 3 m/s 731 mmHg 27%
16:00 +38°C° 0 mm 3 m/s 731 mmHg 26%
17:00 +35°C° 0 mm 3 m/s 731 mmHg 37%
18:00 +30°C° 0 mm 2 m/s 731 mmHg 47%
19:00 +27°C° 0 mm 1 m/s 731 mmHg 58%
20:00 +26°C° 0 mm 1 m/s 731 mmHg 65%
21:00 +24°C° 0 mm 1 m/s 732 mmHg 71%
22:00 +22°C° 0 mm 1 m/s 732 mmHg 78%
23:00 +22°C° 0 mm 1 m/s 732 mmHg 82%
Mostrar mais

Necessitamos do seu Consentimento

A Meteoprog e os seus Fornecedores de Serviços podem armazenar e aceder a dados pessoais como cookies, identificadores do dispositivo ou outras tecnologias semelhantes existentes no seu dispositivo e processar estes dados para personalizar conteúdos e anúncios, assim como funcionalidades nas redes sociais e análise de tráfego.

  • Armazenar e/ou aceder a informações no seu dispositivo

    Os cookies, identificadores do dispositivo ou outras informações podem ser armazenados ou acedidos no seu dispositivo, para os fins acima indicados.

  • Anúncios e conteúdos personalizados, medição de anúncios e conteúdos, dados sobre o público-alvo e desenvolvimento de produtos

    Os anúncios e os conteúdos podem ser personalizados com base num perfil. Podem ser adicionados dados adicionais para uma maior personalização dos anúncios e dos conteúdos. A eficácia dos anúncios e dos conteúdos pode ser medida. Podem ser obtidas informações sobre o público que visualizou os anúncios e os conteúdos. Estes dados podem ser usados para desenvolver ou melhorar sistemas, softwares ou a experiência do utilizador.

Ao clicar em "Eu concordo”, permitirá o uso de cookies, identificadores do dispositivo e web beacons mencionados ou outras tecnologias semelhantes. As configurações do navegador do seu dispositivo podem ser alteradas.

Para certos fins, podem ser invocados interesses legítimos ao invés de consentimento. Pode ler mais informação sobre este assunto na nossa Política de Privacidade e Cookies.